Cloud_Cover
100 100 100 100 100 100 100 100 100 100 28 6 5 39 100 5 5 57 100 100 44 6 12 5 4 5 0 0 5 4 5 0
100 100 100 100 84 100 100 100 100 100 80 58 64 100 100 7 5 100 100 100 96 81 5 5 5 3 3 5 0 5 5 54
100 100 100 100 100 100 100 100 100 100 100 95 100 100 100 70 33 98 100 100 100 100 49 9 5 5 5 2 0 4 5 89
100 100 100 100 100 100 100 100 100 100 100 100 88 30 100 100 100 100 100 100 100 100 100 23 5 5 5 5 0 0 2 58
100 100 100 100 100 100 100 100 100 100 100 100 92 71 100 100 100 100 100 100 100 100 76 98 5 5 5 5 0 1 0 24
100 100 100 100 100 100 100 100 100 100 100 100 100 100 100 100 100 100 100 98 100 100 96 100 13 6 5 5 3 5 5 5
100 100 100 100 100 100 100 100 100 100 100 100 100 100 100 100 100 100 100 100 100 81 100 100 100 6 32 7 5 5 5 23
100 100 88 100 100 100 100 100 100 100 100 100 100 100 100 100 100 100 100 100 100 100 100 100 100 20 98 14 5 5 5 6
100 100 100 100 97 100 100 100 100 100 100 100 100 100 100 100 100 100 100 100 100 100 100 100 100 64 90 5 5 5 5 7
100 100 100 100 85 99 100 100 100 100 100 100 100 100 100 100 100 100 100 100 100 100 100 95 100 99 100 96 5 5 5 11
100 99 100 100 100 97 77 100 100 100 100 100 100 100 100 100 100 100 100 100 100 100 100 78 100 99 64 100 21 5 34 52
98 76 97 99 100 96 79 100 100 100 100 100 100 100 100 100 100 100 100 100 100 100 100 100 100 100 100 63 44 25 25 50
100 92 100 100 100 100 100 100 100 100 95 100 100 100 100 100 100 100 100 100 100 100 100 100 100 100 100 100 63 8 18 77
100 100 100 100 100 100 100 100 90 99 98 99 100 100 100 100 100 100 100 100 100 100 100 100 100 100 100 100 75 34 5 5
100 100 100 100 100 100 100 100 100 100 100 100 100 100 100 100 100 100 100 100 100 100 100 100 100 100 100 100 91 70 47 22
12 80 100 100 100 100 100 100 100 100 100 100 100 100 100 100 100 100 100 100 100 100 100 100 100 100 100 100 100 74 24 81
16 53 100 100 100 100 100 100 100 100 100 100 100 53 95 100 100 100 100 100 100 100 100 100 100 100 100 100 100 62 62 95
86 89 99 66 100 100 100 100 100 100 100 100 100 100 100 100 100 100 100 100 100 100 100 100 100 100 100 100 100 88 89 84
100 100 100 100 100 100 100 100 100 100 100 100 100 100 100 71 100 100 100 100 100 100 100 100 100 100 100 100 100 100 100 99
25 49 100 100 100 99 100 100 100 100 100 100 100 90 100 100 99 100 100 100 100 100 99 100 100 100 100 100 100 100 100 100